Regional Weather Roundup
Issued by NWS

Home | Current Version | Previous Version | Graphics & Text | Print | Product List | Glossary On
Versions: 1 2 3 4 5 6 7 8 9 10 11 12 13 14 15 16 17 18 19 20 21 22 23 24 25 26 27 28 29 30 31 32 33 34 35 36 37 38 39 40 41 42 43 44 45 46 47 48 49 50
000
ASUS43 KMKX 280917
RWRWI

WISCONSIN REGIONAL WEATHER ROUNDUP
NATIONAL WEATHER SERVICE MILWAUKEE/SULLIVAN WI
400 AM CDT THU MAY 28 2015

NOTE: "FAIR" INDICATES FEW OR NO CLOUDS BELOW 12,000 FEET WITH NO
SIGNIFICANT WEATHER AND/OR OBSTRUCTIONS TO VISIBILITY.

WIZ001-002-006>008-014>016-023>028-281000-
NORTHWEST WISCONSIN

CITY           SKY/WX    TMP DP  RH WIND       PRES   REMARKS
SUPERIOR ARPT  CLEAR     48  43  83 E10       30.10S
ASHLAND        CLEAR     45  44  97 NE6       30.10R
HAYWARD        CLEAR     49  48  97 N3        30.07S FOG
SIREN          CLEAR     52  51  95 CALM      30.05S
CUMBERLAND     CLEAR     54  54 100 E3        30.07S
RICE LAKE      CLEAR     54  52  95 CALM      30.08S FOG
CHETEK         CLEAR     55  54  97 CALM      30.07S
LADYSMITH      CLEAR     53  53  97 CALM      30.10S FOG
EAU CLAIRE     CLEAR     56  53  90 CALM      30.06S
MENOMONIE      CLEAR     57  56  97 CALM      30.06F FOG
NEW RICHMOND   CLEAR     58  56  95 SE3       30.05S
OSCEOLA        CLEAR     55  55 100 CALM      30.07R
$$

WIZ003>005-009-010-017-018-281000-
NORTH CENTRAL WISCONSIN

CITY           SKY/WX    TMP DP  RH WIND       PRES   REMARKS
MANITOWISH WTR FOG       47  47 100 CALM      30.10S VSB 1/4
ARBOR VITAE    FOG       52  51  95 CALM      30.10S VSB 1/2
WOODRUFF       FOG       52  51  95 CALM      30.10S VSB 1/2
RHINELANDER    FOG       47  46  97 CALM      30.11S VSB 1/4
EAGLE RIVER    FOG       47  47 100 CALM      30.10S VSB 1
LAND O LAKES   MOCLDY    44  44  99 CALM      30.12S FOG
PHILLIPS       CLEAR     49  49 100 CALM      30.09S FOG
TOMAHAWK       CLEAR     47  46  97 CALM      30.11S FOG
MEDFORD        CLEAR     54  53  94 S3        30.10S
MERRILL        CLEAR     50  50 100 CALM      30.11S FOG
$$

WIZ029-030-035-036-043>047-281000-
CENTRAL WISCONSIN

CITY           SKY/WX    TMP DP  RH WIND       PRES   REMARKS
WAUSAU         CLEAR     55  54  96 SE5       30.09S
MOSINEE        CLEAR     55  55 100 CALM      30.11F
MARSHFIELD     CLEAR     54  52  93 SE3       30.10S FOG
STEVENS POINT  MOCLDY    51  51 100 CALM      30.12R FOG
WAUPACA        FOG       56  55  97 CALM      30.11S VSB 1/2
WAUTOMA        FOG       55  55 100 CALM      30.12S VSB 1/2
WISC RAPIDS    FOG       53  51  93 CALM      30.11S VSB 3/4
CAMP DOUGLAS   NOT AVBL
$$

WIZ011>013-019>022-031-037>040-048>050-281000-
NORTHEAST WISCONSIN

CITY           SKY/WX    TMP DP  RH WIND       PRES   REMARKS
ANTIGO         CLEAR     51  51 100 CALM      30.11S
SHAWANO        CLEAR     56  55  95 CALM      30.11R
OCONTO         CLEAR     50  50 100 CALM      30.10R
STURGEON BAY   CLEAR     55  52  88 S3        30.14R
GREEN BAY      CLEAR     59  56  89 CALM      30.11R
MANITOWOC      NOT AVBL
APPLETON       CLEAR     59  55  88 SW5       30.12R
CLINTONVILLE   FOG       54  54 100 CALM      30.10S VSB 3/4
OSHKOSH        CLEAR     59  54  83 S6        30.11S
$$

WIZ032>034-041-042-053>061-281000-
SOUTHWEST WISCONSIN

CITY           SKY/WX    TMP DP  RH WIND       PRES   REMARKS
LA CROSSE      CLEAR     62  59  90 SE6       30.08S
SPARTA         CLEAR     52  51  95 CALM      30.11R
VIROQUA        CLEAR     62  56  81 CALM      30.12R
BOSCOBEL       FOG       55  54  96 CALM      30.12R VSB 1/4
PRAIRIE DU CHI CLEAR     59  57  94 SE3       30.12R
PLATTEVILLE    CLEAR     61  58  90 SE6       30.14R
$$

WIZ056-057-062-063-064-067-068-281000-
SOUTH CENTRAL WISCONSIN

CITY           SKY/WX    TMP DP  RH WIND       PRES   REMARKS
REEDSBURG      CLEAR     62  58  86 CALM      30.11S
BARABOO/DELLS  CLEAR     62  56  80 SW3       30.12S
LONE ROCK      NOT AVBL
MINERAL POINT  CLEAR     63  57  82 S5        30.14S
MADISON        CLEAR     59  56  89 CALM      30.13S
MIDDLETON      CLEAR     66  56  70 SW8       30.13S
WATERTOWN      CLEAR    N/A N/A N/A CALM      30.13S
MONROE         CLEAR     61  55  82 S7        30.14S
JANESVILLE     CLEAR     59  55  88 CALM      30.14S
$$

WIZ051-052-058>065-066-070>072-281000-
SOUTHEAST WISCONSIN

CITY           SKY/WX    TMP DP  RH WIND       PRES   REMARKS
MILWAUKEE      PTCLDY    61  54  77 CALM      30.14S
WAUKESHA       CLEAR     57  54  88 CALM      30.16R
MILWAUKEE/TIMM FAIR      59  52  77 W5        30.15S
RACINE         CLEAR     61  54  77 SW7       30.16S
BURLINGTON     CLEAR     54  53  97 CALM      30.15R
KENOSHA        CLEAR     58  55  90 S6        30.15S
FOND DU LAC    CLEAR     59  56  89 S3        30.13R
SHEBOYGAN      CLEAR     60  57  89 SW5       30.12S
WEST BEND      CLEAR     63  55  77 SW5       30.14S
JUNEAU         CLEAR     59  56  91 SE3       30.14S
$$

LSZ147-162-281000-
LAKE SUPERIOR

STATION/POSITION TIME  TEMP    WIND        PRES    WAVE
                       AIR SEA DIR/SP/G            HT/PER
                 (UTC) (F)     (DEG/KT/KT) (MB)    (FT/S)
W MID LAKE BUOY  0750   41 37   60/ 17/ 19   N/A     2/ 4
DEVILS ISLAND    0800   43      60/ 16/ 19   N/A
PORT WING        0840   44      50/ 13/ 15   N/A
SAXON HARBOR     0800   49        CALM       N/A
$$

LMZ867-665-643>646-281000-
LAKE MICHIGAN

STATION/POSITION TIME  TEMP    WIND        PRES    WAVE
                       AIR SEA DIR/SP/G            HT/PER
                 (UTC) (F)     (DEG/KT/KT) (MB)    (FT/S)
CHAMBERS ISLAND  0800   55     150/  2/  3   N/A
N MID LAKE BUOY  0750   44 36  210/  8/  8   N/A     1/ 3
NORTHPORT PIER   0700   51     170/  5/  7   N/A
SISTER BAY       0818   51     150/  8/  9   N/A
ALGOMA LAKESHORE 0808           80/ 10/ 12   N/A
KEWAUNEE LAKESHO 0800   55     310/  2/  4   N/A
SHEBOYGAN LAKESH 0800   62     200/  6/  6   N/A
PORT WASHINGTON  0700   53     340/  3/  4   N/A
ATWATER BUOY     0800   61 48  240/ 10/ 12   N/A
MILWAUKEE LAKESH 0800   66     240/ 13/ 15   N/A
S MID LAKE BUOY  0750   43 38  210/  8/  8   N/A     0
KENOSHA   LAKESH 0800   63     230/  6/ 10   N/A
$$

TC  - TEMPERATURE IN CELSIUS
VSB - VISIBILITY IN STATUTE MILES
WCI - WIND CHILL INDEX
HX  - HEAT INDEX




USA.gov is the U.S. government's official web portal to all federal, state and local government web resources and services.